Location: Newark
(40.7066°N, 111.8219°W)
Time: 13:27:36
(UTC+00:00)

Transit 4A - All Passes

Search period start: 15 November 2019 00:00
Search period end: 25 November 2019 00:00
Orbit: 868 x 976 km, 66.8° (Epoch: 14 November)

Date Brightness Start Highest point End Pass type
(mag) Time Alt. Az. Time Alt. Az. Time Alt. Az.
15 Nov - 04:23:02 10° SE 04:25:43 13° ESE 04:28:23 10° ENE night (unlit)
15 Nov - 06:04:53 10° SSW 06:11:12 86° ESE 06:17:24 10° NNE night (unlit)
15 Nov - 07:53:53 10° W 07:58:19 20° NW 08:02:43 10° N night (unlit)
15 Nov - 13:23:16 10° N 13:27:06 17° NE 13:30:52 10° E visible
15 Nov - 15:08:25 10° NNW 15:14:21 86° ENE 15:20:09 10° SSE daylight
15 Nov - 16:57:16 10° WNW 16:59:48 13° WSW 17:02:19 10° SW daylight
16 Nov - 04:30:17 10° SSE 04:34:45 21° ESE 04:39:09 10° ENE night (unlit)
16 Nov - 06:14:18 10° SW 06:20:34 66° WNW 06:26:42 10° NNE night (unlit)
16 Nov - 08:04:44 10° WNW 08:08:06 15° NW 08:11:25 10° N night (unlit)
16 Nov - 13:32:08 10° N 13:36:48 23° NE 13:41:24 10° E visible
16 Nov - 15:17:48 10° NW 15:23:38 64° WSW 15:29:20 10° SSE daylight
17 Nov - 04:38:27 10° SSE 04:43:51 31° ESE 04:49:10 10° NE night (unlit)
17 Nov - 06:24:00 10° SW 06:30:00 46° NW 06:35:54 10° NNE night (unlit)
17 Nov - 08:16:26 10° NW 08:17:58 11° NNW 08:19:30 10° NNW night (unlit)
17 Nov - 13:41:08 10° NNW 13:46:25 32° NE 13:51:35 10° ESE visible
17 Nov - 15:27:22 10° NW 15:32:50 42° WSW 15:38:14 10° S daylight
18 Nov - 04:47:04 10° S 04:53:01 46° ESE 04:58:53 10° NE night (unlit)
18 Nov - 06:33:56 10° WSW 06:39:32 33° NW 06:45:01 10° NNE night (unlit)
18 Nov - 12:06:56 10° NNE 12:07:58 10° NNE 12:09:00 10° NE visible
18 Nov - 13:50:15 10° NNW 13:55:56 46° NE 14:01:30 10° SE visible
18 Nov - 15:37:08 10° NW 15:41:59 27° WSW 15:46:46 10° SSW daylight
19 Nov - 04:56:02 10° SSW 05:02:16 68° ESE 05:08:23 10° NE night (unlit)
19 Nov - 06:44:11 10° W 06:49:08 24° NW 06:54:01 10° N night (unlit)
19 Nov - 12:14:46 10° N 12:17:50 14° NE 12:20:53 10° ENE visible
19 Nov - 13:59:28 10° NNW 14:05:22 68° ENE 14:11:08 10° SE daylight
19 Nov - 15:47:18 10° WNW 15:51:02 18° WSW 15:54:44 10° SW daylight
20 Nov - 03:22:30 10° SE 03:25:59 15° ESE 03:29:25 10° ENE night (unlit)
20 Nov - 05:05:16 10° SSW 05:11:35 83° WNW 05:17:45 10° NNE night (unlit)
20 Nov - 06:54:47 10° W 06:58:51 18° NW 07:02:52 10° N night (unlit)
20 Nov - 12:23:27 10° N 12:27:36 19° NE 12:31:42 10° E visible
20 Nov - 14:08:48 10° NNW 14:14:42 82° WSW 14:20:29 10° SSE daylight
20 Nov - 15:58:51 10° W 16:00:01 11° W 16:01:12 10° WSW daylight
21 Nov - 03:30:12 10° SSE 03:35:03 24° ESE 03:39:49 10° NE night (unlit)
21 Nov - 05:14:47 10° SW 05:20:58 58° WNW 05:27:01 10° NNE night (unlit)
21 Nov - 07:05:51 10° WNW 07:08:39 13° NW 07:11:26 10° N night (unlit)
21 Nov - 12:32:22 10° N 12:37:16 26° NE 12:42:06 10° ESE visible
21 Nov - 14:18:14 10° NW 14:23:57 55° WSW 14:29:35 10° S daylight
22 Nov - 03:38:32 10° S 03:44:10 36° ESE 03:49:42 10° NE night (unlit)
22 Nov - 05:24:34 10° WSW 05:30:26 41° NW 05:36:12 10° NNE night (unlit)
22 Nov - 12:41:25 10° NNW 12:46:51 37° NE 12:52:11 10° ESE visible
22 Nov - 14:27:52 10° NW 14:33:08 36° WSW 14:38:20 10° S daylight
23 Nov - 03:47:17 10° S 03:53:22 53° ESE 03:59:19 10° NE night (unlit)
23 Nov - 05:34:38 10° WSW 05:40:00 29° NW 05:45:16 10° NNE night (unlit)
23 Nov - 11:06:32 10° NNE 11:08:32 12° NNE 11:10:31 10° NE visible
23 Nov - 12:50:34 10° NNW 12:56:20 53° NE 13:02:00 10° SE visible
23 Nov - 14:37:44 10° NW 14:42:14 23° WSW 14:46:42 10° SSW daylight
24 Nov - 02:15:31 10° ESE 02:17:14 11° E 02:18:56 10° E night (unlit)
24 Nov - 03:56:21 10° SSW 04:02:38 78° ESE 04:08:46 10° NNE night (unlit)
24 Nov - 05:45:00 10° W 05:49:39 21° NW 05:54:13 10° N night (unlit)
24 Nov - 11:14:53 10° N 11:18:22 16° NE 11:21:50 10° ENE visible
24 Nov - 12:59:49 10° NNW 13:05:44 78° ENE 13:11:32 10° SSE visible
24 Nov - 14:48:10 10° WNW 14:51:17 15° WSW 14:54:23 10° SW daylight
